Location: ???
(30.4832°N, 114.1966°E)
Time: 06:50:57
(UTC+00:00)

SEDSat Delta rocket - Pass Details

Date: 14 July 2020
Orbit: 533 x 1000 km, 31.4° (Epoch: 10 August)

Event Time Altitude Azimuth Distance (km) Brightness Sun altitude
Rises 11:40:29 0° 235° (SW) 2,962 7.0 -3.4°
Reaches altitude 10° 11:42:47 10° 229° (SW) 2,121 6.1 -3.8°
Maximum altitude 11:47:34 46° 157° (SSE) 999 3.8 -4.7°
Drops below altitude 10° 11:53:05 10° 85° (E) 2,439 5.6 -5.8°
Sets 11:55:53 0° 79° (E) 3,453 6.4 -6.3°
